FW7711 Weather Reports


time (UTC)temp
F
wind
direction
speed
knots
gust
knots
rain 1hr
in
rain 24hr
in
rain mn
in
humidity
%
barometer
mb
20260502223058 66 0.0 0.0 0.00 0.00 0.00 34 1011.7
20260502221559 66 0.0 0.0 0.00 0.00 0.00 35 1011.9
20260502220143 66 0.0 0.0 0.00 0.00 0.00 34 1012.1
20260502214559 66 0.0 0.0 0.00 0.00 0.00 35 1012.3
20260502213107 66 0.0 0.0 0.00 0.00 0.00 34 1012.5
20260502211557 66 0.0 0.0 0.00 0.00 0.00 34 1012.9
20260502204610 66 0.0 0.0 0.00 0.00 0.00 35 1013.4
20260502203112 65 0.0 0.0 0.00 0.00 0.00 36 1013.7
20260502201601 65 0.0 0.0 0.00 0.00 0.00 33 1014.1
20260502200101 65 0.0 0.0 0.00 0.00 0.00 34 1014.4
20260502194559 64 0.0 0.0 0.00 0.00 0.00 36 1014.6
20260502193107 64 0.0 0.0 0.00 0.00 0.00 34 1014.9
20260502191622 64 0.0 0.0 0.00 0.00 0.00 34 1015.4
20260502190112 64 0.0 0.0 0.00 0.00 0.00 36 1015.7
20260502184559 62 0.0 0.0 0.00 0.00 0.00 34 1016.0
20260502183103 62 0.0 0.0 0.00 0.00 0.00 37 1016.2
20260502181600 61 0.0 0.0 0.00 0.00 0.00 39 1016.4
20260502180115 61 0.0 0.0 0.00 0.00 0.00 37 1016.7
20260502163113 58 0.0 0.0 0.00 0.00 0.00 39 1018.1
20260502161600 57 0.0 0.0 0.00 0.00 0.00 42 1018.3
20260502160104 57 0.0 0.0 0.00 0.00 0.00 43 1018.4
20260502151615 54 0.0 0.0 0.00 0.00 0.00 47 1018.7
20260502150106 53 0.0 0.0 0.00 0.00 0.00 53 1018.8
20260502140105 48 0.0 0.0 0.00 0.00 0.00 61 1019.3
20260502130111 42 0.0 0.0 0.00 0.00 0.00 73 1019.4
20260502123110 36 0.0 0.0 0.00 0.00 0.00 83 1019.4
20260502121617 34 0.0 0.0 0.00 0.00 0.00 88 1019.3
20260502120109 33 0.0 0.0 0.00 0.00 0.00 87 1019.2
20260502114604 32 0.0 0.0 0.00 0.00 0.00 86 1019.2
20260502113059 32 0.0 0.0 0.00 0.00 0.00 86 1019.1
20260502111600 32 0.0 0.0 0.00 0.00 0.00 85 1019.1
20260502110104 32 0.0 0.0 0.00 0.00 0.00 85 1019.0
20260502104557 33 0.0 0.0 0.00 0.00 0.00 85 1019.1
20260502103102 33 0.0 0.0 0.00 0.00 0.00 84 1019.1
20260502101604 33 0.0 0.0 0.00 0.00 0.00 84 1019.0
20260502070101 37 0.0 0.0 0.00 0.00 0.00 77 1019.3
20260502064600 37 0.0 0.0 0.00 0.00 0.00 76 1019.3
20260502063107 37 0.0 0.0 0.00 0.00 0.00 74 1019.4
20260502061606 37 0.0 0.0 0.00 0.00 0.00 74 1019.4
20260502060106 37 0.0 0.0 0.00 0.00 0.00 72 1019.4
20260502054600 37 0.0 0.0 0.00 0.00 0.00 72 1019.5
20260502053107 37 0.0 0.0 0.00 0.00 0.00 70 1019.5
20260502051645 38 0.0 0.0 0.00 0.00 0.00 69 1019.5
20260502050059 38 0.0 0.0 0.00 0.00 0.00 68 1019.4
20260502044600 38 0.0 0.0 0.00 0.00 0.00 66 1019.3
20260502043107 39 0.0 0.0 0.00 0.00 0.00 65 1019.3
20260502041556 40 0.0 0.0 0.00 0.00 0.00 62 1019.3
20260502040059 40 0.0 0.0 0.00 0.00 0.00 62 1019.3
20260502034600 41 0.0 0.0 0.00 0.00 0.00 59 1019.3
20260502033059 42 0.0 0.0 0.00 0.00 0.00 58 1019.4
20260502031600 42 0.0 0.0 0.00 0.00 0.00 56 1019.4
20260502030105 43 0.0 0.0 0.00 0.00 0.00 52 1019.4
20260502024600 44 0.0 0.0 0.00 0.00 0.00 50 1019.4
20260502023102 46 0.0 0.0 0.00 0.00 0.00 50 1019.3
20260502021616 47 0.0 0.0 0.00 0.00 0.00 47 1019.2
20260502020100 48 0.0 0.0 0.00 0.00 0.00 47 1019.1
20260502014604 49 0.0 0.0 0.00 0.00 0.00 45 1018.9
20260502013102 50 0.0 0.0 0.00 0.00 0.00 41 1018.8
20260502011601 51 0.0 0.0 0.00 0.00 0.00 38 1018.8
20260502004605 52 0.0 0.0 0.00 0.00 0.00 37 1018.6
20260502003055 52 0.0 0.0 0.00 0.00 0.00 39 1018.7
20260502001556 52 0.0 0.0 0.00 0.00 0.00 38 1018.6
20260502000108 52 0.0 0.0 0.00 0.00 0.00 37 1018.6
20260501234606 54 0.0 0.0 0.00 0.00 0.00 35 1018.7
20260501233059 55 0.0 0.0 0.00 0.00 0.00 34 1018.6
20260501231557 57 0.0 0.0 0.00 0.00 0.00 32 1018.5
20260501230056 57 0.0 0.0 0.00 0.00 0.00 35 1018.6
20260501224604 56 0.0 0.0 0.00 0.00 0.00 35 1018.6